Year,Month,Day,Hour,Minute,Value (Times are PST for temperature in C)
2006,04,28,00,00,9.00
2006,04,28,00,01,9.10
2006,04,28,00,02,9.10
2006,04,28,00,03,9.10
2006,04,28,00,04,9.10
2006,04,28,00,05,9.00
2006,04,28,00,06,9.00
2006,04,28,00,07,9.00
2006,04,28,00,08,9.00
2006,04,28,00,09,9.00
2006,04,28,00,10,9.00
2006,04,28,00,11,9.00
2006,04,28,00,12,9.00
2006,04,28,00,13,9.00
2006,04,28,00,14,8.90
2006,04,28,00,15,8.90
2006,04,28,00,16,8.90
2006,04,28,00,17,8.90
2006,04,28,00,18,8.80
2006,04,28,00,19,8.80
2006,04,28,00,20,8.80
2006,04,28,00,21,8.90
2006,04,28,00,22,8.90
2006,04,28,00,23,8.90
2006,04,28,00,24,8.90
2006,04,28,00,25,8.90
2006,04,28,00,26,8.90
2006,04,28,00,27,8.90
2006,04,28,00,28,8.90
2006,04,28,00,29,8.80
2006,04,28,00,30,8.80
2006,04,28,00,31,8.80
2006,04,28,00,32,8.80
2006,04,28,00,33,8.70
2006,04,28,00,34,8.70
2006,04,28,00,35,8.70
2006,04,28,00,36,8.70
2006,04,28,00,37,8.70
2006,04,28,00,38,8.70
2006,04,28,00,39,8.70
2006,04,28,00,40,8.70
2006,04,28,00,41,8.70
2006,04,28,00,42,8.70
2006,04,28,00,43,8.60
2006,04,28,00,44,8.60
2006,04,28,00,45,8.50
2006,04,28,00,46,8.50
2006,04,28,00,47,8.50
2006,04,28,00,48,8.40
2006,04,28,00,49,8.40
2006,04,28,00,50,8.30
2006,04,28,00,51,8.30
2006,04,28,00,52,8.30
2006,04,28,00,53,8.20
2006,04,28,00,54,8.20
2006,04,28,00,55,8.20
2006,04,28,00,56,8.20
2006,04,28,00,57,8.20
2006,04,28,00,58,8.10
2006,04,28,00,59,8.10
2006,04,28,01,00,8.10
2006,04,28,01,01,8.00
2006,04,28,01,02,8.00
2006,04,28,01,03,8.00
2006,04,28,01,04,8.00
2006,04,28,01,05,7.90
2006,04,28,01,06,7.90
2006,04,28,01,07,7.90
2006,04,28,01,08,7.90
2006,04,28,01,09,7.90
2006,04,28,01,10,7.90
2006,04,28,01,11,7.90
2006,04,28,01,12,7.90
2006,04,28,01,13,7.90
2006,04,28,01,14,7.90
2006,04,28,01,15,7.90
2006,04,28,01,16,7.90
2006,04,28,01,17,7.80
2006,04,28,01,18,7.80
2006,04,28,01,19,7.80
2006,04,28,01,20,7.80
2006,04,28,01,21,7.80
2006,04,28,01,22,7.80
2006,04,28,01,23,7.80
2006,04,28,01,24,7.80
2006,04,28,01,25,7.80
2006,04,28,01,26,7.80
2006,04,28,01,27,7.80
2006,04,28,01,28,7.80
2006,04,28,01,29,7.80
2006,04,28,01,30,7.70
2006,04,28,01,31,7.70
2006,04,28,01,32,7.70
2006,04,28,01,33,7.70
2006,04,28,01,34,7.70
2006,04,28,01,35,7.70
2006,04,28,01,36,7.70
2006,04,28,01,37,7.70
2006,04,28,01,38,7.60
2006,04,28,01,39,7.60
2006,04,28,01,40,7.60
2006,04,28,01,41,7.60
2006,04,28,01,42,7.60
2006,04,28,01,43,7.60
2006,04,28,01,44,7.60
2006,04,28,01,45,7.60
2006,04,28,01,46,7.60
2006,04,28,01,47,7.50
2006,04,28,01,48,7.50
2006,04,28,01,49,7.50
2006,04,28,01,50,7.50
2006,04,28,01,51,7.50
2006,04,28,01,52,7.50
2006,04,28,01,53,7.50
2006,04,28,01,54,7.50
2006,04,28,01,55,7.50
2006,04,28,01,56,7.50
2006,04,28,01,57,7.50
2006,04,28,01,58,7.60
2006,04,28,01,59,7.60
2006,04,28,02,00,7.60
2006,04,28,02,01,7.70
2006,04,28,02,02,7.70
2006,04,28,02,03,7.70
2006,04,28,02,04,7.70
2006,04,28,02,05,7.60
2006,04,28,02,06,7.60
2006,04,28,02,07,7.60
2006,04,28,02,08,7.60
2006,04,28,02,09,7.60
2006,04,28,02,10,7.60
2006,04,28,02,11,7.60
2006,04,28,02,12,7.50
2006,04,28,02,13,7.50
2006,04,28,02,14,7.50
2006,04,28,02,15,7.50
2006,04,28,02,16,7.40
2006,04,28,02,17,7.40
2006,04,28,02,18,7.40
2006,04,28,02,19,7.40
2006,04,28,02,20,7.40
2006,04,28,02,21,7.40
2006,04,28,02,22,7.40
2006,04,28,02,23,7.40
2006,04,28,02,24,7.40
2006,04,28,02,25,7.40
2006,04,28,02,26,7.40
2006,04,28,02,27,7.30
2006,04,28,02,28,7.30
2006,04,28,02,29,7.30
2006,04,28,02,30,7.30
2006,04,28,02,31,7.30
2006,04,28,02,32,7.30
2006,04,28,02,33,7.30
2006,04,28,02,34,7.30
2006,04,28,02,35,7.30
2006,04,28,02,36,7.30
2006,04,28,02,37,7.30
2006,04,28,02,38,7.30
2006,04,28,02,39,7.30
2006,04,28,02,40,7.30
2006,04,28,02,41,7.30
2006,04,28,02,42,7.20
2006,04,28,02,43,7.20
2006,04,28,02,44,7.20
2006,04,28,02,45,7.20
2006,04,28,02,46,7.10
2006,04,28,02,47,7.10
2006,04,28,02,48,7.10
2006,04,28,02,49,7.10
2006,04,28,02,50,7.10
2006,04,28,02,51,7.00
2006,04,28,02,52,7.00
2006,04,28,02,53,7.00
2006,04,28,02,54,7.00
2006,04,28,02,55,7.00
2006,04,28,02,56,7.00
2006,04,28,02,57,7.00
2006,04,28,02,58,7.00
2006,04,28,02,59,7.00
2006,04,28,03,00,7.00
2006,04,28,03,01,7.00
2006,04,28,03,02,7.00
2006,04,28,03,03,7.00
2006,04,28,03,04,7.00
2006,04,28,03,05,7.00
2006,04,28,03,06,7.10
2006,04,28,03,07,7.10
2006,04,28,03,08,7.10
2006,04,28,03,09,7.10
2006,04,28,03,10,7.10
2006,04,28,03,11,7.10
2006,04,28,03,12,7.00
2006,04,28,03,13,7.00
2006,04,28,03,14,7.00
2006,04,28,03,15,7.00
2006,04,28,03,16,7.00
2006,04,28,03,17,7.10
2006,04,28,03,18,7.10
2006,04,28,03,19,7.10
2006,04,28,03,20,7.10
2006,04,28,03,21,7.10
2006,04,28,03,22,7.20
2006,04,28,03,23,7.20
2006,04,28,03,24,7.20
2006,04,28,03,25,7.20
2006,04,28,03,26,7.20
2006,04,28,03,27,7.20
2006,04,28,03,28,7.20
2006,04,28,03,29,7.20
2006,04,28,03,30,7.20
2006,04,28,03,31,7.10
2006,04,28,03,32,7.10
2006,04,28,03,33,7.10
2006,04,28,03,34,7.10
2006,04,28,03,35,7.20
2006,04,28,03,36,7.20
2006,04,28,03,37,7.20
2006,04,28,03,38,7.10
2006,04,28,03,39,7.10
2006,04,28,03,40,7.10
2006,04,28,03,41,7.10
2006,04,28,03,42,7.10
2006,04,28,03,43,7.10
2006,04,28,03,44,7.10
2006,04,28,03,45,7.10
2006,04,28,03,46,7.00
2006,04,28,03,47,7.00
2006,04,28,03,48,7.00
2006,04,28,03,49,7.00
2006,04,28,03,50,7.00
2006,04,28,03,51,7.00
2006,04,28,03,52,7.00
2006,04,28,03,53,7.00
2006,04,28,03,54,7.00
2006,04,28,03,55,7.00
2006,04,28,03,56,7.00
2006,04,28,03,57,7.00
2006,04,28,03,58,6.90
2006,04,28,03,59,6.90
2006,04,28,04,00,6.90
2006,04,28,04,01,6.90
2006,04,28,04,02,6.90
2006,04,28,04,03,6.90
2006,04,28,04,04,6.90
2006,04,28,04,05,6.90
2006,04,28,04,06,6.90
2006,04,28,04,07,6.90
2006,04,28,04,08,6.90
2006,04,28,04,09,7.00
2006,04,28,04,10,7.00
2006,04,28,04,11,7.00
2006,04,28,04,12,7.00
2006,04,28,04,13,6.90
2006,04,28,04,14,6.90
2006,04,28,04,15,6.90
2006,04,28,04,16,6.90
2006,04,28,04,17,6.90
2006,04,28,04,18,6.80
2006,04,28,04,19,6.80
2006,04,28,04,20,6.80
2006,04,28,04,21,6.80
2006,04,28,04,22,6.80
2006,04,28,04,23,6.80
2006,04,28,04,24,6.80
2006,04,28,04,25,6.80
2006,04,28,04,26,6.80
2006,04,28,04,27,6.80
2006,04,28,04,28,6.80
2006,04,28,04,29,6.80
2006,04,28,04,30,6.80
2006,04,28,04,31,6.80
2006,04,28,04,32,6.80
2006,04,28,04,33,6.80
2006,04,28,04,34,6.80
2006,04,28,04,35,6.80
2006,04,28,04,36,6.80
2006,04,28,04,37,6.80
2006,04,28,04,38,6.80
2006,04,28,04,39,6.80
2006,04,28,04,40,6.80
2006,04,28,04,41,6.80
2006,04,28,04,42,6.80
2006,04,28,04,43,6.80
2006,04,28,04,44,6.80
2006,04,28,04,45,6.80
2006,04,28,04,46,6.80
2006,04,28,04,47,6.80
2006,04,28,04,48,6.80
2006,04,28,04,49,6.80
2006,04,28,04,50,6.80
2006,04,28,04,51,6.80
2006,04,28,04,52,6.80
2006,04,28,04,53,6.80
2006,04,28,04,54,6.80
2006,04,28,04,55,6.80
2006,04,28,04,56,6.80
2006,04,28,04,57,6.80
2006,04,28,04,58,6.80
2006,04,28,04,59,6.80
2006,04,28,05,00,6.80
2006,04,28,05,01,6.70
2006,04,28,05,02,6.70
2006,04,28,05,03,6.70
2006,04,28,05,04,6.70
2006,04,28,05,05,6.60
2006,04,28,05,06,6.60
2006,04,28,05,07,6.60
2006,04,28,05,08,6.60
2006,04,28,05,09,6.60
2006,04,28,05,10,6.60
2006,04,28,05,11,6.60
2006,04,28,05,12,6.60
2006,04,28,05,13,6.60
2006,04,28,05,14,6.60
2006,04,28,05,15,6.50
2006,04,28,05,16,6.40
2006,04,28,05,17,6.40
2006,04,28,05,18,6.40
2006,04,28,05,19,6.40
2006,04,28,05,20,6.50
2006,04,28,05,21,6.60
2006,04,28,05,22,6.60
2006,04,28,05,23,6.60
2006,04,28,05,24,6.60
2006,04,28,05,25,6.70
2006,04,28,05,26,6.70
2006,04,28,05,27,6.70
2006,04,28,05,28,6.80
2006,04,28,05,29,6.80
2006,04,28,05,30,6.80
2006,04,28,05,31,6.80
2006,04,28,05,32,6.80
2006,04,28,05,33,6.80
2006,04,28,05,34,6.80
2006,04,28,05,35,6.80
2006,04,28,05,36,6.80
2006,04,28,05,37,6.80
2006,04,28,05,38,6.80
2006,04,28,05,39,6.80
2006,04,28,05,40,6.90
2006,04,28,05,41,6.90
2006,04,28,05,42,7.00
2006,04,28,05,43,7.00
2006,04,28,05,44,7.00
2006,04,28,05,45,7.00
2006,04,28,05,46,7.00
2006,04,28,05,47,7.00
2006,04,28,05,48,7.00
2006,04,28,05,49,7.00
2006,04,28,05,50,7.00
2006,04,28,05,51,7.10
2006,04,28,05,52,7.10
2006,04,28,05,53,7.10
2006,04,28,05,54,7.20
2006,04,28,05,55,7.20
2006,04,28,05,56,7.30
2006,04,28,05,57,7.30
2006,04,28,05,58,7.30
2006,04,28,05,59,7.30
2006,04,28,06,00,7.30
2006,04,28,06,01,7.30
2006,04,28,06,02,7.30
2006,04,28,06,03,7.20
2006,04,28,06,04,7.20
2006,04,28,06,05,7.10
2006,04,28,06,06,7.10
2006,04,28,06,07,7.00
2006,04,28,06,08,7.00
2006,04,28,06,09,6.90
2006,04,28,06,10,6.90
2006,04,28,06,11,6.80
2006,04,28,06,12,6.80
2006,04,28,06,13,6.80
2006,04,28,06,14,6.70
2006,04,28,06,15,6.80
2006,04,28,06,16,6.80
2006,04,28,06,17,6.80
2006,04,28,06,18,6.80
2006,04,28,06,19,6.80
2006,04,28,06,20,6.80
2006,04,28,06,21,6.80
2006,04,28,06,22,6.80
2006,04,28,06,23,6.80
2006,04,28,06,24,6.80
2006,04,28,06,25,6.80
2006,04,28,06,26,6.80
2006,04,28,06,27,6.80
2006,04,28,06,28,6.90
2006,04,28,06,29,6.90
2006,04,28,06,30,6.90
2006,04,28,06,31,7.00
2006,04,28,06,32,7.00
2006,04,28,06,33,7.00
2006,04,28,06,34,7.00
2006,04,28,06,35,7.00
2006,04,28,06,36,6.90
2006,04,28,06,37,6.90
2006,04,28,06,38,6.90
2006,04,28,06,39,6.90
2006,04,28,06,40,7.00
2006,04,28,06,41,7.00
2006,04,28,06,42,7.00
2006,04,28,06,43,7.00
2006,04,28,06,44,7.10
2006,04,28,06,45,7.20
2006,04,28,06,46,7.30
2006,04,28,06,47,7.40
2006,04,28,06,48,7.30
2006,04,28,06,49,7.40
2006,04,28,06,50,7.40
2006,04,28,06,51,7.50
2006,04,28,06,52,7.50
2006,04,28,06,53,7.50
2006,04,28,06,54,7.60
2006,04,28,06,55,7.60
2006,04,28,06,56,7.70
2006,04,28,06,57,7.70
2006,04,28,06,58,7.70
2006,04,28,06,59,7.70
2006,04,28,07,00,7.70
2006,04,28,07,01,7.70
2006,04,28,07,02,7.70
2006,04,28,07,03,7.70
2006,04,28,07,04,7.70
2006,04,28,07,05,7.80
2006,04,28,07,06,7.80
2006,04,28,07,07,7.80
2006,04,28,07,08,7.80
2006,04,28,07,09,7.90
2006,04,28,07,10,7.90
2006,04,28,07,11,8.00
2006,04,28,07,12,8.00
2006,04,28,07,13,8.10
2006,04,28,07,14,8.20
2006,04,28,07,15,8.20
2006,04,28,07,16,8.20
2006,04,28,07,17,8.40
2006,04,28,07,18,8.50
2006,04,28,07,19,8.50
2006,04,28,07,20,8.60
2006,04,28,07,21,8.70
2006,04,28,07,22,8.70
2006,04,28,07,23,8.80
2006,04,28,07,24,8.90
2006,04,28,07,25,8.90
2006,04,28,07,26,9.00
2006,04,28,07,27,9.20
2006,04,28,07,28,9.30
2006,04,28,07,29,9.40
2006,04,28,07,30,9.60
2006,04,28,07,31,9.70
2006,04,28,07,32,9.80
2006,04,28,07,33,9.90
2006,04,28,07,34,9.90
2006,04,28,07,35,9.90
2006,04,28,07,36,9.90
2006,04,28,07,37,10.00
2006,04,28,07,38,10.10
2006,04,28,07,39,10.10
2006,04,28,07,40,10.10
2006,04,28,07,41,10.20
2006,04,28,07,42,10.20
2006,04,28,07,43,10.30
2006,04,28,07,44,10.30
2006,04,28,07,45,10.40
2006,04,28,07,46,10.50
2006,04,28,07,47,10.60
2006,04,28,07,48,10.70
2006,04,28,07,49,10.80
2006,04,28,07,50,10.90
2006,04,28,07,51,10.90
2006,04,28,07,52,11.10
2006,04,28,07,53,11.10
2006,04,28,07,54,11.20
2006,04,28,07,55,11.30
2006,04,28,07,56,11.40
2006,04,28,07,57,11.40
2006,04,28,07,58,11.50
2006,04,28,07,59,11.60
2006,04,28,08,00,11.80
2006,04,28,08,01,11.80
2006,04,28,08,02,11.90
2006,04,28,08,03,12.00
2006,04,28,08,04,12.10
2006,04,28,08,05,12.20
2006,04,28,08,06,12.30
2006,04,28,08,07,12.30
2006,04,28,08,08,12.40
2006,04,28,08,09,12.40
2006,04,28,08,10,12.50
2006,04,28,08,11,12.50
2006,04,28,08,12,12.50
2006,04,28,08,13,12.50
2006,04,28,08,14,12.50
2006,04,28,08,15,12.50
2006,04,28,08,16,12.60
2006,04,28,08,17,12.60
2006,04,28,08,18,12.60
2006,04,28,08,19,12.60
2006,04,28,08,20,12.60
2006,04,28,08,21,12.60
2006,04,28,08,22,12.60
2006,04,28,08,23,12.60
2006,04,28,08,24,12.70
2006,04,28,08,25,12.80
2006,04,28,08,26,12.80
2006,04,28,08,27,12.80
2006,04,28,08,28,12.90
2006,04,28,08,29,12.90
2006,04,28,08,30,12.90
2006,04,28,08,31,12.90
2006,04,28,08,32,12.90
2006,04,28,08,33,12.80
2006,04,28,08,34,12.80
2006,04,28,08,35,12.80
2006,04,28,08,36,12.80
2006,04,28,08,37,12.90
2006,04,28,08,38,13.00
2006,04,28,08,39,13.00
2006,04,28,08,40,13.10
2006,04,28,08,41,13.10
2006,04,28,08,42,13.20
2006,04,28,08,43,13.20
2006,04,28,08,44,13.20
2006,04,28,08,45,13.20
2006,04,28,08,46,13.20
2006,04,28,08,47,13.30
2006,04,28,08,48,13.30
2006,04,28,08,49,13.30
2006,04,28,08,50,13.30
2006,04,28,08,51,13.30
2006,04,28,08,52,13.30
2006,04,28,08,53,13.30
2006,04,28,08,54,13.30
2006,04,28,08,55,13.30
2006,04,28,08,56,13.30
2006,04,28,08,57,13.40
2006,04,28,08,58,13.40
2006,04,28,08,59,13.50
2006,04,28,09,00,13.50
2006,04,28,09,01,13.60
2006,04,28,09,02,13.60
2006,04,28,09,03,13.60
2006,04,28,09,04,13.70
2006,04,28,09,05,13.70
2006,04,28,09,06,13.80
2006,04,28,09,07,13.80
2006,04,28,09,08,13.90
2006,04,28,09,09,14.00
2006,04,28,09,10,14.00
2006,04,28,09,11,14.00
2006,04,28,09,12,14.10
2006,04,28,09,13,14.10
2006,04,28,09,14,14.10
2006,04,28,09,15,14.10
2006,04,28,09,16,14.00
2006,04,28,09,17,14.00
2006,04,28,09,18,14.00
2006,04,28,09,19,14.10
2006,04,28,09,20,14.10
2006,04,28,09,21,14.10
2006,04,28,09,22,14.00
2006,04,28,09,23,14.00
2006,04,28,09,24,13.90
2006,04,28,09,25,13.90
2006,04,28,09,26,13.90
2006,04,28,09,27,13.80
2006,04,28,09,28,13.80
2006,04,28,09,29,13.80
2006,04,28,09,30,13.80
2006,04,28,09,31,13.80
2006,04,28,09,32,13.70
2006,04,28,09,33,13.70
2006,04,28,09,34,13.70
2006,04,28,09,35,13.70
2006,04,28,09,36,13.70
2006,04,28,09,37,13.80
2006,04,28,09,38,13.90
2006,04,28,09,39,13.90
2006,04,28,09,40,13.90
2006,04,28,09,41,13.90
2006,04,28,09,42,13.90
2006,04,28,09,43,13.80
2006,04,28,09,44,13.80
2006,04,28,09,45,13.80
2006,04,28,09,46,13.90
2006,04,28,09,47,13.90
2006,04,28,09,48,13.80
2006,04,28,09,49,13.80
2006,04,28,09,50,13.80
2006,04,28,09,51,13.80
2006,04,28,09,52,13.90
2006,04,28,09,53,13.90
2006,04,28,09,54,14.00
2006,04,28,09,55,14.10
2006,04,28,09,56,14.10
2006,04,28,09,57,14.10
2006,04,28,09,58,14.10
2006,04,28,09,59,14.10
2006,04,28,10,00,14.10
2006,04,28,10,01,14.10
2006,04,28,10,02,14.10
2006,04,28,10,03,14.10
2006,04,28,10,04,14.10
2006,04,28,10,05,14.10
2006,04,28,10,06,14.10
2006,04,28,10,07,14.20
2006,04,28,10,08,14.30
2006,04,28,10,09,14.40
2006,04,28,10,10,14.50
2006,04,28,10,11,14.60
2006,04,28,10,12,14.60
2006,04,28,10,13,14.60
2006,04,28,10,14,14.50
2006,04,28,10,15,14.50
2006,04,28,10,16,14.50
2006,04,28,10,17,14.50
2006,04,28,10,18,14.50
2006,04,28,10,19,14.40
2006,04,28,10,20,14.40
2006,04,28,10,21,14.40
2006,04,28,10,22,14.50
2006,04,28,10,23,14.50
2006,04,28,10,24,14.50
2006,04,28,10,25,14.50
2006,04,28,10,26,14.60
2006,04,28,10,27,14.60
2006,04,28,10,28,14.60
2006,04,28,10,29,14.50
2006,04,28,10,30,14.60
2006,04,28,10,31,14.60
2006,04,28,10,32,14.70
2006,04,28,10,33,14.70
2006,04,28,10,34,14.60
2006,04,28,10,35,14.50
2006,04,28,10,36,14.50
2006,04,28,10,37,14.50
2006,04,28,10,38,14.50
2006,04,28,10,39,14.50
2006,04,28,10,40,14.50
2006,04,28,10,41,14.60
2006,04,28,10,42,14.70
2006,04,28,10,43,14.70
2006,04,28,10,44,14.80
2006,04,28,10,45,14.80
2006,04,28,10,46,14.80
2006,04,28,10,47,14.80
2006,04,28,10,48,14.80
2006,04,28,10,49,14.80
2006,04,28,10,50,14.80
2006,04,28,10,51,14.80
2006,04,28,10,52,14.80
2006,04,28,10,53,14.80
2006,04,28,10,54,14.80
2006,04,28,10,55,14.80
2006,04,28,10,56,14.80
2006,04,28,10,57,14.90
2006,04,28,10,58,14.90
2006,04,28,10,59,14.90
2006,04,28,11,00,14.90
2006,04,28,11,01,15.00
2006,04,28,11,02,15.00
2006,04,28,11,03,15.00
2006,04,28,11,04,15.00
2006,04,28,11,05,15.20
2006,04,28,11,06,15.30
2006,04,28,11,07,15.30
2006,04,28,11,08,15.30
2006,04,28,11,09,15.30
2006,04,28,11,10,15.50
2006,04,28,11,11,15.50
2006,04,28,11,12,15.70
2006,04,28,11,13,15.80
2006,04,28,11,14,15.90
2006,04,28,11,15,16.10
2006,04,28,11,16,16.10
2006,04,28,11,17,16.20
2006,04,28,11,18,16.30
2006,04,28,11,19,16.30
2006,04,28,11,20,16.30
2006,04,28,11,21,16.30
2006,04,28,11,22,16.40
2006,04,28,11,23,16.40
2006,04,28,11,24,16.40
2006,04,28,11,25,16.40
2006,04,28,11,26,16.40
2006,04,28,11,27,16.40
2006,04,28,11,28,16.20
2006,04,28,11,29,15.90
2006,04,28,11,30,15.80
2006,04,28,11,31,15.90
2006,04,28,11,32,16.00
2006,04,28,11,33,16.10
2006,04,28,11,34,16.20
2006,04,28,11,35,16.20
2006,04,28,11,36,16.20
2006,04,28,11,37,16.10
2006,04,28,11,38,16.10
2006,04,28,11,39,16.10
2006,04,28,11,40,16.00
2006,04,28,11,41,15.90
2006,04,28,11,42,15.80
2006,04,28,11,43,15.70
2006,04,28,11,44,15.60
2006,04,28,11,45,15.50
2006,04,28,11,46,15.50
2006,04,28,11,47,15.50
2006,04,28,11,48,15.50
2006,04,28,11,49,15.50
2006,04,28,11,50,15.60
2006,04,28,11,51,15.70
2006,04,28,11,52,15.70
2006,04,28,11,53,15.70
2006,04,28,11,54,15.70
2006,04,28,11,55,15.80
2006,04,28,11,56,15.80
2006,04,28,11,57,15.80
2006,04,28,11,58,15.80
2006,04,28,11,59,15.80
2006,04,28,12,00,15.80
2006,04,28,12,01,15.80
2006,04,28,12,02,15.80
2006,04,28,12,03,15.90
2006,04,28,12,04,15.90
2006,04,28,12,05,15.80
2006,04,28,12,06,15.80
2006,04,28,12,07,15.80
2006,04,28,12,08,15.80
2006,04,28,12,09,15.90
2006,04,28,12,10,16.00
2006,04,28,12,11,16.00
2006,04,28,12,12,15.90
2006,04,28,12,13,15.80
2006,04,28,12,14,15.80
2006,04,28,12,15,15.70
2006,04,28,12,16,15.60
2006,04,28,12,17,15.60
2006,04,28,12,18,15.50
2006,04,28,12,19,15.60
2006,04,28,12,20,15.70
2006,04,28,12,21,15.80
2006,04,28,12,22,15.80
2006,04,28,12,23,15.90
2006,04,28,12,24,16.10
2006,04,28,12,25,16.20
2006,04,28,12,26,16.30
2006,04,28,12,27,16.30
2006,04,28,12,28,16.30
2006,04,28,12,29,16.30
2006,04,28,12,30,16.40
2006,04,28,12,31,16.30
2006,04,28,12,32,16.30
2006,04,28,12,33,16.40
2006,04,28,12,34,16.40
2006,04,28,12,35,16.40
2006,04,28,12,36,16.40
2006,04,28,12,37,16.40
2006,04,28,12,38,16.40
2006,04,28,12,39,16.40
2006,04,28,12,40,16.50
2006,04,28,12,41,16.60
2006,04,28,12,42,16.70
2006,04,28,12,43,16.70
2006,04,28,12,44,16.60
2006,04,28,12,45,16.60
2006,04,28,12,46,16.60
2006,04,28,12,47,16.60
2006,04,28,12,48,16.60
2006,04,28,12,49,16.60
2006,04,28,12,50,16.60
2006,04,28,12,51,16.60
2006,04,28,12,52,16.60
2006,04,28,12,53,16.60
2006,04,28,12,54,16.70
2006,04,28,12,55,16.70
2006,04,28,12,56,16.70
2006,04,28,12,57,16.70
2006,04,28,12,58,16.80
2006,04,28,12,59,16.80
2006,04,28,13,00,16.80
2006,04,28,13,01,16.80
2006,04,28,13,02,16.90
2006,04,28,13,03,17.20
2006,04,28,13,04,17.20
2006,04,28,13,05,17.20
2006,04,28,13,06,17.10
2006,04,28,13,07,17.20
2006,04,28,13,08,17.20
2006,04,28,13,09,17.20
2006,04,28,13,10,17.20
2006,04,28,13,11,17.20
2006,04,28,13,12,17.30
2006,04,28,13,13,17.30
2006,04,28,13,14,17.30
2006,04,28,13,15,17.30
2006,04,28,13,16,17.30
2006,04,28,13,17,17.30
2006,04,28,13,18,17.30
2006,04,28,13,19,17.30
2006,04,28,13,20,17.30
2006,04,28,13,21,17.40
2006,04,28,13,22,17.50
2006,04,28,13,23,17.60
2006,04,28,13,24,17.60
2006,04,28,13,25,17.60
2006,04,28,13,26,17.50
2006,04,28,13,27,17.40
2006,04,28,13,28,17.40
2006,04,28,13,29,17.40
2006,04,28,13,30,17.40
2006,04,28,13,31,17.30
2006,04,28,13,32,17.30
2006,04,28,13,33,17.10
2006,04,28,13,34,16.90
2006,04,28,13,35,16.90
2006,04,28,13,36,16.70
2006,04,28,13,37,16.70
2006,04,28,13,38,16.70
2006,04,28,13,39,16.70
2006,04,28,13,40,16.80
2006,04,28,13,41,16.90
2006,04,28,13,42,17.00
2006,04,28,13,43,17.20
2006,04,28,13,44,17.30
2006,04,28,13,45,17.40
2006,04,28,13,46,17.40
2006,04,28,13,47,17.30
2006,04,28,13,48,17.10
2006,04,28,13,49,16.80
2006,04,28,13,50,16.70
2006,04,28,13,51,16.70
2006,04,28,13,52,16.70
2006,04,28,13,53,16.10
2006,04,28,13,54,15.80
2006,04,28,13,55,15.50
2006,04,28,13,56,15.30
2006,04,28,13,57,15.30
2006,04,28,13,58,15.20
2006,04,28,13,59,15.30
2006,04,28,14,00,15.30
2006,04,28,14,01,15.30
2006,04,28,14,02,15.30
2006,04,28,14,03,15.40
2006,04,28,14,04,15.50
2006,04,28,14,05,15.50
2006,04,28,14,06,15.50
2006,04,28,14,07,15.60
2006,04,28,14,08,15.60
2006,04,28,14,09,15.60
2006,04,28,14,10,15.60
2006,04,28,14,11,15.60
2006,04,28,14,12,15.60
2006,04,28,14,13,15.60
2006,04,28,14,14,15.60
2006,04,28,14,15,15.70
2006,04,28,14,16,15.60
2006,04,28,14,17,15.50
2006,04,28,14,18,15.50
2006,04,28,14,19,15.40
2006,04,28,14,20,15.40
2006,04,28,14,21,15.40
2006,04,28,14,22,15.40
2006,04,28,14,23,15.40
2006,04,28,14,24,15.40
2006,04,28,14,25,15.50
2006,04,28,14,26,15.50
2006,04,28,14,27,15.50
2006,04,28,14,28,15.50
2006,04,28,14,29,15.50
2006,04,28,14,30,15.50
2006,04,28,14,31,15.50
2006,04,28,14,32,15.40
2006,04,28,14,33,15.40
2006,04,28,14,34,15.30
2006,04,28,14,35,15.30
2006,04,28,14,36,15.30
2006,04,28,14,37,15.20
2006,04,28,14,38,15.10
2006,04,28,14,39,15.00
2006,04,28,14,40,15.00
2006,04,28,14,41,14.90
2006,04,28,14,42,14.90
2006,04,28,14,43,14.80
2006,04,28,14,44,14.80
2006,04,28,14,45,14.80
2006,04,28,14,46,14.80
2006,04,28,14,47,14.80
2006,04,28,14,48,14.90
2006,04,28,14,49,15.00
2006,04,28,14,50,15.10
2006,04,28,14,51,15.20
2006,04,28,14,52,15.20
2006,04,28,14,53,15.30
2006,04,28,14,54,15.30
2006,04,28,14,55,15.40
2006,04,28,14,56,15.50
2006,04,28,14,57,15.60
2006,04,28,14,58,15.70
2006,04,28,14,59,15.80
2006,04,28,15,00,15.90
2006,04,28,15,01,15.80
2006,04,28,15,02,15.80
2006,04,28,15,03,15.80
2006,04,28,15,04,15.90
2006,04,28,15,05,15.90
2006,04,28,15,06,15.90
2006,04,28,15,07,16.00
2006,04,28,15,08,16.10
2006,04,28,15,09,16.20
2006,04,28,15,10,16.20
2006,04,28,15,11,16.20
2006,04,28,15,12,16.30
2006,04,28,15,13,16.30
2006,04,28,15,14,16.30
2006,04,28,15,15,16.20
2006,04,28,15,16,16.00
2006,04,28,15,17,15.90
2006,04,28,15,18,15.80
2006,04,28,15,19,15.60
2006,04,28,15,20,15.50
2006,04,28,15,21,15.30
2006,04,28,15,22,15.10
2006,04,28,15,23,14.90
2006,04,28,15,24,14.80
2006,04,28,15,25,14.60
2006,04,28,15,26,14.50
2006,04,28,15,27,14.30
2006,04,28,15,28,14.20
2006,04,28,15,29,14.10
2006,04,28,15,30,14.10
2006,04,28,15,31,14.10
2006,04,28,15,32,14.10
2006,04,28,15,33,14.10
2006,04,28,15,34,14.10
2006,04,28,15,35,14.20
2006,04,28,15,36,14.20
2006,04,28,15,37,14.20
2006,04,28,15,38,14.40
2006,04,28,15,39,14.50
2006,04,28,15,40,14.60
2006,04,28,15,41,14.60
2006,04,28,15,42,14.70
2006,04,28,15,43,14.80
2006,04,28,15,44,14.70
2006,04,28,15,45,14.70
2006,04,28,15,46,14.70
2006,04,28,15,47,14.70
2006,04,28,15,48,14.70
2006,04,28,15,49,14.70
2006,04,28,15,50,14.80
2006,04,28,15,51,14.80
2006,04,28,15,52,14.80
2006,04,28,15,53,14.90
2006,04,28,15,54,15.00
2006,04,28,15,55,15.00
2006,04,28,15,56,14.90
2006,04,28,15,57,14.90
2006,04,28,15,58,14.90
2006,04,28,15,59,14.80
2006,04,28,16,00,14.90
2006,04,28,16,01,14.80
2006,04,28,16,02,14.80
2006,04,28,16,03,14.80
2006,04,28,16,04,14.90
2006,04,28,16,05,15.00
2006,04,28,16,06,15.00
2006,04,28,16,07,15.10
2006,04,28,16,08,15.20
2006,04,28,16,09,15.20
2006,04,28,16,10,15.20
2006,04,28,16,11,15.20
2006,04,28,16,12,15.20
2006,04,28,16,13,15.20
2006,04,28,16,14,15.20
2006,04,28,16,15,15.20
2006,04,28,16,16,15.20
2006,04,28,16,17,15.20
2006,04,28,16,18,15.20
2006,04,28,16,19,15.10
2006,04,28,16,20,15.10
2006,04,28,16,21,15.00
2006,04,28,16,22,15.00
2006,04,28,16,23,15.00
2006,04,28,16,24,14.90
2006,04,28,16,25,14.80
2006,04,28,16,26,14.80
2006,04,28,16,27,14.80
2006,04,28,16,28,14.80
2006,04,28,16,29,14.80
2006,04,28,16,30,14.60
2006,04,28,16,31,14.60
2006,04,28,16,32,14.40
2006,04,28,16,33,14.30
2006,04,28,16,34,14.10
2006,04,28,16,35,14.00
2006,04,28,16,36,14.00
2006,04,28,16,37,13.90
2006,04,28,16,38,13.90
2006,04,28,16,39,13.80
2006,04,28,16,40,13.80
2006,04,28,16,41,13.80
2006,04,28,16,42,13.80
2006,04,28,16,43,13.90
2006,04,28,16,44,13.90
2006,04,28,16,45,14.00
2006,04,28,16,46,14.00
2006,04,28,16,47,13.90
2006,04,28,16,48,13.90
2006,04,28,16,49,13.80
2006,04,28,16,50,13.80
2006,04,28,16,51,13.80
2006,04,28,16,52,13.80
2006,04,28,16,53,13.80
2006,04,28,16,54,13.80
2006,04,28,16,55,13.80
2006,04,28,16,56,13.80
2006,04,28,16,57,13.70
2006,04,28,16,58,13.60
2006,04,28,16,59,13.40
2006,04,28,17,00,13.30
2006,04,28,17,01,13.20
2006,04,28,17,02,13.20
2006,04,28,17,03,13.00
2006,04,28,17,04,12.90
2006,04,28,17,05,12.90
2006,04,28,17,06,12.80
2006,04,28,17,07,12.60
2006,04,28,17,08,12.60
2006,04,28,17,09,12.50
2006,04,28,17,10,12.40
2006,04,28,17,11,12.40
2006,04,28,17,12,12.40
2006,04,28,17,13,12.30
2006,04,28,17,14,12.30
2006,04,28,17,15,12.30
2006,04,28,17,16,12.30
2006,04,28,17,17,12.30
2006,04,28,17,18,12.40
2006,04,28,17,19,12.40
2006,04,28,17,20,12.40
2006,04,28,17,21,12.40
2006,04,28,17,22,12.40
2006,04,28,17,23,12.40
2006,04,28,17,24,12.40
2006,04,28,17,25,12.40
2006,04,28,17,26,12.30
2006,04,28,17,27,12.30
2006,04,28,17,28,12.20
2006,04,28,17,29,12.10
2006,04,28,17,30,12.00
2006,04,28,17,31,12.00
2006,04,28,17,32,11.90
2006,04,28,17,33,11.80
2006,04,28,17,34,11.80
2006,04,28,17,35,11.80
2006,04,28,17,36,11.80
2006,04,28,17,37,11.80
2006,04,28,17,38,11.80
2006,04,28,17,39,11.80